Simultaneous Nadir Overpasses (SNOs) Predictions

Prediction of SNOs between GOES-17 and NPP Satellite Orbit:

Table of predicted SNOs for the next 14.0 days since TLE Epoch: 5/4/2024
Index Date Time (GOES-17) GOES-17 Lat,Lon NPP Lat,Lon Distance(km) Time Diff (sec)
1 05/06/2024 08:27:20 0.00,-104.71 0.12,-105.21 57.34 80
2 05/07/2024 08:05:54 0.00,-104.71 -0.89,-100.68 459.44 80
3 05/08/2024 20:27:50 -0.00,-104.70 -0.31,-105.98 145.52 80
4 05/09/2024 20:11:45 0.00,-104.71 0.75,-101.45 371.23 80
5 05/11/2024 08:33:31 -0.01,-104.71 0.44,-106.72 228.01 80
6 05/12/2024 08:12:06 -0.01,-104.72 -0.57,-102.18 288.59 80
7 05/13/2024 20:34:01 0.02,-104.71 -0.62,-107.48 316.38 80
8 05/14/2024 20:17:56 0.01,-104.71 0.40,-102.95 200.93 80
9 05/16/2024 08:39:42 0.00,-104.73 0.79,-108.21 397.22 80
10 05/17/2024 08:18:17 0.00,-104.73 -0.22,-103.68 120.12 80
